WetterOnline ( http://www.wetteronline.de )

Wetter aktuell Freiburg

Aktuelles Wetter: Freiburg/Flugplatz (236m)

6-stündlich | Neueste Meldungen
Ortszeit Temperatur Wetter
So, 17.02. 7:00 -1.6° C wolkig
So, 17.02. 1:00 2.2° C wolkenlos
Sa, 16.02. 19:00 7.3° C wolkenlos
Sa, 16.02. 13:00 12.3° C wolkenlos
Sa, 16.02. 7:00 -1.8° C wolkenlos
Sa, 16.02. 1:00 -0.4° C wolkenlos
Fr, 15.02. 19:00 5.9° C wolkenlos
Fr, 15.02. 13:00 9.8° C wolkenlos
Ortszeit Temperatur Wetter
So, 17.02. 12:00 12.1° C leicht bewölkt
So, 17.02. 11:50 12.1° C wolkig
So, 17.02. 11:40 11.8° C wolkig
So, 17.02. 11:30 10.7° C wolkig
So, 17.02. 11:20 10.7° C wolkig
So, 17.02. 11:10 10.6° C wolkig
So, 17.02. 11:00 9.0° C leicht bewölkt
So, 17.02. 10:30 7.5° C wolkig
So, 17.02. 10:00 6.2° C leicht bewölkt
So, 17.02. 9:30 5.5° C wolkig
So, 17.02. 9:00 1.6° C wolkig
Ortszeit Relative Feuchte Sichtweite
So, 17.02. 7:00 90% 27 km
So, 17.02. 1:00 80% 6 km
Sa, 16.02. 19:00 64% 25 km
Sa, 16.02. 13:00 46% 23 km
Sa, 16.02. 7:00 91% 16 km
Sa, 16.02. 1:00 91% 8 km
Fr, 15.02. 19:00 72% 13 km
Fr, 15.02. 13:00 52% 21 km
Ortszeit Relative Feuchte Sichtweite
So, 17.02. 12:00 41% 29 km
So, 17.02. 11:50 41% -
So, 17.02. 11:40 43% -
So, 17.02. 11:30 46% 27 km
So, 17.02. 11:20 46% -
So, 17.02. 11:10 46% -
So, 17.02. 11:00 48% 29 km
So, 17.02. 10:30 57% 23 km
So, 17.02. 10:00 62% 21 km
So, 17.02. 9:30 63% 19 km
So, 17.02. 9:00 79% 23 km
Ortszeit Niederschlagsmenge Niederschlagsart
So, 17.02. 7:00 0.0 l/m2 in 12 Std. -
So, 17.02. 1:00 0.0 l/m2 in 6 Std. -
Sa, 16.02. 19:00 0.0 l/m2 in 12 Std. -
Sa, 16.02. 13:00 0.0 l/m2 in 6 Std. -
Sa, 16.02. 7:00 0.0 l/m2 in 12 Std. -
Sa, 16.02. 1:00 0.0 l/m2 in 6 Std. -
Fr, 15.02. 19:00 0.0 l/m2 in 12 Std. -
Fr, 15.02. 13:00 0.0 l/m2 in 6 Std. -
Ortszeit Niederschlagsmenge Niederschlagsart
So, 17.02. 12:00 0.0 l/m2 in 1 Std. -
So, 17.02. 11:50 keine Meldung -
So, 17.02. 11:40 keine Meldung -
So, 17.02. 11:30 0.0 l/m2 in 1 Std. -
So, 17.02. 11:20 keine Meldung -
So, 17.02. 11:10 keine Meldung -
So, 17.02. 11:00 0.0 l/m2 in 1 Std. -
So, 17.02. 10:30 0.0 l/m2 in 1 Std. -
So, 17.02. 10:00 0.0 l/m2 in 1 Std. -
So, 17.02. 9:30 0.0 l/m2 in 1 Std. -
So, 17.02. 9:00 0.0 l/m2 in 1 Std. -
Ortszeit Stärke Spitze Richtung
km/h Bft. km/h Grad Sektor
So, 17.02. 7:00 2 1 7 160° S
So, 17.02. 1:00 4 1 7 110° O
Sa, 16.02. 19:00 0 0 11 - -
Sa, 16.02. 13:00 6 1 11 210° SW
Sa, 16.02. 7:00 4 1 7 240° SW
Sa, 16.02. 1:00 0 0 7 - -
Fr, 15.02. 19:00 0 0 11 - -
Fr, 15.02. 13:00 4 1 7 240° SW
Ortszeit Stärke Spitze Richtung
km/h Bft. km/h Grad Sektor
So, 17.02. 12:00 2 1 7 220° SW
So, 17.02. 11:50 2 1 - 220° SW
So, 17.02. 11:40 4 1 - 270° W
So, 17.02. 11:30 4 1 7 170° S
So, 17.02. 11:20 4 1 - 170° S
So, 17.02. 11:10 2 1 - 150° SO
So, 17.02. 11:00 4 1 4 250° W
So, 17.02. 10:30 4 1 4 200° S
So, 17.02. 10:00 2 1 4 210° SW
So, 17.02. 9:30 0 0 4 - -
So, 17.02. 9:00 2 1 4 330° NW
Ortszeit Untergrenze Bedeckung Gattung
total tief tief mittel hoch
So, 17.02. 7:00 10500 m 8/8 0/8 - - -
So, 17.02. 1:00 - 0/8 0/8 - - -
Sa, 16.02. 19:00 - 0/8 0/8 - - -
Sa, 16.02. 13:00 - 0/8 0/8 - - -
Sa, 16.02. 7:00 - 0/8 0/8 - - -
Sa, 16.02. 1:00 - 0/8 0/8 - - -
Fr, 15.02. 19:00 - 0/8 0/8 - - -
Fr, 15.02. 13:00 - 0/8 0/8 - - -
Ortszeit Bedeckungsgrad in Achtel und Wolkenuntergrenze
So, 17.02. 12:00 8(10500m)
So, 17.02. 11:50 8(10500m)
So, 17.02. 11:40 8(10500m)
So, 17.02. 11:30 8(10500m)
So, 17.02. 11:20 8(10500m)
So, 17.02. 11:10 8(10500m)
So, 17.02. 11:00 8(10500m)
So, 17.02. 10:30 8(10500m)
So, 17.02. 10:00 8(10500m)
So, 17.02. 9:30 8(10500m)
So, 17.02. 9:00 8(10500m)
Ortszeit Luftdruck NN (hPa) Tendenz (hPa in 3 Std.)
So, 17.02. 7:00 1028 - 0,2
So, 17.02. 1:00 1028 - 0,2
Sa, 16.02. 19:00 1028 + 0,2
Sa, 16.02. 13:00 1029 - 1,0
Sa, 16.02. 7:00 1031 0,0
Sa, 16.02. 1:00 1031 - 0,6
Fr, 15.02. 19:00 1031 - 0,2
Fr, 15.02. 13:00 1033 - 1,4
Ortszeit Luftdruck NN (hPa) Tendenz (hPa in 3 Std.)
So, 17.02. 12:00 1026 - 0,5
So, 17.02. 11:50 1026 keine Meldung
So, 17.02. 11:40 1026 keine Meldung
So, 17.02. 11:30 1026 - 0,3
So, 17.02. 11:20 1026 keine Meldung
So, 17.02. 11:10 1026 keine Meldung
So, 17.02. 11:00 1026 - 0,2
So, 17.02. 10:30 1026 - 0,2
So, 17.02. 10:00 1027 0,0
So, 17.02. 9:30 1027 0,0
So, 17.02. 9:00 1027 + 0,1
Ortszeit Schneehöhe (cm)
So, 17.02. 7:00 0
So, 17.02. 1:00 0
Sa, 16.02. 19:00 0
Sa, 16.02. 13:00 0
Sa, 16.02. 7:00 0
Sa, 16.02. 1:00 0
Fr, 15.02. 19:00 0
Fr, 15.02. 13:00 0
Ortszeit Schneehöhe (cm)
So, 17.02. 12:00 0
So, 17.02. 11:50 0
So, 17.02. 11:40 0
So, 17.02. 11:30 0
So, 17.02. 11:20 0
So, 17.02. 11:10 0
So, 17.02. 11:00 0
So, 17.02. 10:30 0
So, 17.02. 10:00 0
So, 17.02. 9:30 0
So, 17.02. 9:00 0
Link zu dieser Seite / Seite empfehlen

Das Wetter in ...